Meteo Giornale » Osservazioni meteo Italia » Frontone

ore: 03:55 - Osservazioni Meteo Frontone
Lat. 43° 31' N Lon. 12° 44' E Alt. 570 metri s.l.m.

molto_nuvoloso Europe/Rome

11 °C

Molto Nuvoloso

Temp. 24 Ore

11 °C

15 °C

Ovest/Sud-Ovest

24 Km/h

Dew point 6 °C

Umidità 71 %

Visibilità  10 Km

Il sole sorge alle ore 05:37

Il sole tramonta alle ore 20:33

Data e Ora Cielo e Fenomeni T °C DP °C Um. % Pres. hPa Vis. km Vento km/h
Oggi h: 03:55 molto_nuvoloso Molto Nuvoloso 11 6 71 1005 10 O/SO 24
Oggi h: 02:55 coperto Coperto 11 7 76 1005 10 O/SO 9.3
Oggi h: 01:55 molto_nuvoloso Molto Nuvoloso 11 7 76 1005 10 O/NO 16.7
Oggi h: 00:55 nuvoloso Nuvoloso 11 7 76 1005 10 O 18.5
Ieri h: 23:55 nuvoloso Nuvoloso 11 8 81 1005 10 O/SO 13
Ieri h: 22:55 coperto_pioggia Pioggia Debole 12 9 81 1005 10 O/SO 14.8
Ieri h: 21:55 coperto_pioggia Pioggia Debole 12 8 76 1005 10 O/NO 9.3
Ieri h: 20:55 coperto_pioggia Pioggia Debole 12 9 81 1004 10 N/NO 13
Ieri h: 19:55 nuvoloso Nuvoloso 12 8 76 1004 10 SO 18.5
Ieri h: 18:55 nuvoloso Nuvoloso 13 9 76 1004 10 SO 22.2
Ieri h: 17:55 coperto_pioggia Pioggia Debole 13 9 76 1004 10 SO 18.5
Ieri h: 16:55 coperto_pioggia Pioggia Debole 14 10 76 1003 10 S/SO 7.4
Ieri h: 15:55 molto_nuvoloso Molto Nuvoloso 14 8 67 1003 10 SO 9.3
Ieri h: 14:55 molto_nuvoloso Molto Nuvoloso 14 9 71 1003 10 O/SO 18.5
Ieri h: 13:55 coperto_pioggia Pioggia Debole 14 9 71 1004 10 N 3.7
Ieri h: 12:55 nuvoloso Nuvoloso 15 11 76 1004 10 O/SO 7.4
Ieri h: 11:55 coperto_pioggia Pioggia Debole 14 11 82 1004 10 N/NO 9.3
Ieri h: 10:55 coperto_pioggia Pioggia Debole 13 12 93 1004 10 N 3.7
Ieri h: 08:55 molto_nuvoloso Molto Nuvoloso 12 10 87 1004 10 N 9.3
Ieri h: 07:55 nuvoloso Nuvoloso 12 9 81 1004 10 N 3.7
Ieri h: 06:55 nuvoloso Nuvoloso 12 10 87 1004 10 SE 7.4
Ieri h: 05:55 nuvoloso Nuvoloso 12 9 81 1005 10 N 7.4